アトラス彗星

C/2019 N1 ( ATLAS )

English version
Home page
Updated on February 19, 2020

---------------------------------------------------------------------

・ プロフィール

発見日 2019年7月5日
発見光度 18.6等
発見者 Asteroid Terrestrial-Impact Last Alert System (ATLAS) search program

・ 写真集

・ 軌道要素

Epoch 2020 Dec. 17.0 TT = JDT 2459200.5
T 2020 Dec. 1.77336 TT                                  Bell
q   1.7045759            (2000.0)            P               Q
z  -0.0000195      Peri.  193.44286     -0.93824595     +0.25606330
 +/-0.0000068      Node    13.57376     -0.14508642     +0.31925480
e   1.0000332      Incl.   82.42750     -0.31407716     -0.91241874
From 633 observations 2019 June 10-2020 Feb. 1, mean residual 0".9.

・ 星図

・ 光度変化

        m1 = 6.5 + 5 logΔ + 10.0 log r

---------------------------------------------------------------------

軌道要素はM.P.E.C. 2020-C98に掲載されたものです。
星図はステラナビゲータ Ver.10 (アストロアーツ) で作成したものです。
光度グラフはComet for Windowsで作成したものです。

---------------------------------------------------------------------

Copyright(C) Seiichi Yoshida (comet@aerith.net). All rights reserved.